This is the latest recevied weather packets stored in our database for station/object N5RPG. If no packets are shown the sender has not sent any weather packets the latest 1 day(s).
| Time | Temp. | Humidity | Pressure | Rain* | Wind** | Luminosity | Snow |
|---|---|---|---|---|---|---|---|
| 1778044917 | 23.89° C | 90% | 1009.6 hPa | 0 mm | 0.45 m/s, 238° | 0 W/m² | - |
| 1778044614 | 23.89° C | 90% | 1009.5 hPa | 0 mm | 1.79 m/s, 234° | 0 W/m² | - |
| 1778044310 | 23.89° C | 90% | 1009.7 hPa | 0 mm | 0.45 m/s, 40° | 0 W/m² | - |
| 1778044009 | 23.89° C | 90% | 1009.3 hPa | 0 mm | 0 m/s | 0 W/m² | - |
| 1778043706 | 23.89° C | 90% | 1009.2 hPa | 0 mm | 0.45 m/s, 176° | 0 W/m² | - |
| 1778043402 | 23.89° C | 90% | 1009.2 hPa | 0 mm | 0.45 m/s, 152° | 0 W/m² | - |
| 1778043098 | 23.89° C | 89% | 1009.1 hPa | 0 mm | 1.34 m/s, 220° | 0 W/m² | - |
| 1778042797 | 23.89° C | 89% | 1008.9 hPa | 0 mm | 0.45 m/s, 220° | 0 W/m² | - |
| 1778042493 | 23.89° C | 89% | 1008.9 hPa | 0 mm | 0 m/s | 0 W/m² | - |
| 1778042190 | 23.89° C | 89% | 1008.9 hPa | 0 mm | 1.34 m/s, 213° | 0 W/m² | - |
| 1778041889 | 23.89° C | 89% | 1008.6 hPa | 0 mm | 0.89 m/s, 146° | 0 W/m² | - |
| 1778041587 | 23.89° C | 89% | 1008.7 hPa | 0 mm | 1.79 m/s, 241° | 0 W/m² | - |
| 1778041285 | 23.89° C | 88% | 1008.4 hPa | 0 mm | 0.89 m/s, 114° | 0 W/m² | - |
| 1778040984 | 24.44° C | 88% | 1008.4 hPa | 0 mm | 0.89 m/s, 272° | 0 W/m² | - |
| 1778040680 | 24.44° C | 88% | 1008.3 hPa | 0 mm | 1.34 m/s, 121° | 0 W/m² | - |
| 1778040378 | 24.44° C | 88% | 1008.2 hPa | 0 mm | 0.89 m/s, 87° | 0 W/m² | - |
| 1778040074 | 24.44° C | 87% | 1008.3 hPa | 0 mm | 1.34 m/s, 161° | 0 W/m² | - |
| 1778039771 | 24.44° C | 87% | 1008.3 hPa | 0 mm | 1.34 m/s, 156° | 0 W/m² | - |
| 1778039467 | 24.44° C | 87% | 1008.4 hPa | 0 mm | 2.24 m/s, 224° | 0 W/m² | - |
| 1778039165 | 24.44° C | 87% | 1008.2 hPa | 0 mm | 0 m/s | 0 W/m² | - |
| 1778038862 | 24.44° C | 87% | 1008.5 hPa | 0 mm | 0.89 m/s, 241° | 0 W/m² | - |
| 1778038559 | 24.44° C | 86% | 1008.2 hPa | 0 mm | 1.79 m/s, 128° | 0 W/m² | - |
| 1778038256 | 25° C | 86% | 1008.3 hPa | 0 mm | 0.45 m/s, 92° | 0 W/m² | - |
| 1778037953 | 25° C | 86% | 1008.3 hPa | 0 mm | 0.45 m/s, 141° | 0 W/m² | - |
| 1778037650 | 25° C | 86% | 1008.3 hPa | 0 mm | 0.45 m/s, 183° | 0 W/m² | - |
* Rain latest hour (hover to see other rain measurements)
** Current wind speed in m/s (hover to see current wind gust speed)